TimeMDT,TemperatureF,Dew PointF,Humidity,Sea Level PressureIn,VisibilityMPH,Wind Direction,Wind SpeedMPH,Gust SpeedMPH,PrecipitationIn,Events,Conditions,WindDirDegrees,DateUTC
12:15 AM,42.8,21.2,42,30.05,10.0,Calm,Calm,-,N/A,,Overcast,0,2013-10-10 06:15:00
12:35 AM,42.8,21.2,42,30.05,10.0,Calm,Calm,-,N/A,,Mostly Cloudy,0,2013-10-10 06:35:00
12:55 AM,42.8,21.2,42,30.04,10.0,North,4.6,-,N/A,,Overcast,360,2013-10-10 06:55:00
1:15 AM,44.6,23.0,43,30.04,10.0,ENE,3.5,-,N/A,,Overcast,70,2013-10-10 07:15:00
1:35 AM,44.6,21.2,39,30.02,10.0,NE,3.5,-,N/A,,Scattered Clouds,40,2013-10-10 07:35:00
1:55 AM,42.8,21.2,42,30.03,10.0,Calm,Calm,-,N/A,,Mostly Cloudy,0,2013-10-10 07:55:00
2:15 AM,42.8,23.0,46,30.02,10.0,NNW,3.5,-,N/A,,Mostly Cloudy,340,2013-10-10 08:15:00
2:35 AM,44.6,23.0,43,30.00,10.0,ENE,5.8,-,N/A,,Mostly Cloudy,60,2013-10-10 08:35:00
2:55 AM,42.8,23.0,46,30.00,10.0,Calm,Calm,-,N/A,,Overcast,0,2013-10-10 08:55:00
3:15 AM,42.8,23.0,46,29.99,10.0,NNW,3.5,-,N/A,,Mostly Cloudy,340,2013-10-10 09:15:00
3:35 AM,42.8,24.8,49,29.98,10.0,ENE,3.5,-,N/A,,Mostly Cloudy,60,2013-10-10 09:35:00
3:55 AM,44.6,24.8,46,29.97,10.0,WNW,3.5,-,N/A,,Overcast,300,2013-10-10 09:55:00
4:15 AM,44.6,26.6,49,29.98,10.0,North,4.6,-,N/A,,Overcast,350,2013-10-10 10:15:00
4:35 AM,48.2,30.2,50,29.97,10.0,ESE,10.4,-,N/A,,Mostly Cloudy,120,2013-10-10 10:35:00
4:55 AM,46.4,30.2,53,29.97,10.0,SE,5.8,-,N/A,,Overcast,140,2013-10-10 10:55:00
5:15 AM,46.4,32.0,57,29.96,10.0,SE,6.9,-,N/A,,Overcast,130,2013-10-10 11:15:00
5:35 AM,46.4,30.2,53,29.95,10.0,East,4.6,-,N/A,,Mostly Cloudy,100,2013-10-10 11:35:00
5:55 AM,46.4,30.2,53,29.94,10.0,SE,3.5,-,N/A,,Scattered Clouds,130,2013-10-10 11:55:00
6:15 AM,48.2,30.2,50,29.93,10.0,ESE,5.8,-,N/A,,Mostly Cloudy,110,2013-10-10 12:15:00
6:35 AM,48.2,30.2,50,29.92,10.0,East,6.9,-,N/A,,Mostly Cloudy,100,2013-10-10 12:35:00
6:55 AM,48.2,30.2,50,29.91,10.0,East,12.7,-,N/A,,Overcast,90,2013-10-10 12:55:00
7:15 AM,48.2,28.4,46,29.90,10.0,SE,10.4,19.6,N/A,,Mostly Cloudy,140,2013-10-10 13:15:00
7:35 AM,48.2,28.4,46,29.90,10.0,SSE,16.1,21.9,N/A,,Mostly Cloudy,150,2013-10-10 13:35:00
7:55 AM,48.2,28.4,46,29.89,10.0,ESE,13.8,21.9,N/A,,Mostly Cloudy,110,2013-10-10 13:55:00
8:15 AM,48.2,28.4,46,29.89,10.0,ESE,13.8,19.6,N/A,,Mostly Cloudy,110,2013-10-10 14:15:00
8:35 AM,50.0,28.4,43,29.90,10.0,SE,13.8,19.6,N/A,,Mostly Cloudy,130,2013-10-10 14:35:00
8:55 AM,50.0,28.4,43,29.89,10.0,South,12.7,24.2,N/A,,Overcast,170,2013-10-10 14:55:00
9:15 AM,50.0,28.4,43,29.88,10.0,East,11.5,27.6,N/A,,Overcast,100,2013-10-10 15:15:00
9:35 AM,50.0,28.4,43,29.87,10.0,ESE,15.0,20.7,N/A,,Mostly Cloudy,110,2013-10-10 15:35:00
9:55 AM,50.0,26.6,40,29.87,10.0,SE,15.0,32.2,N/A,,Mostly Cloudy,130,2013-10-10 15:55:00
10:15 AM,50.0,26.6,40,29.86,10.0,ESE,16.1,20.7,N/A,,Overcast,120,2013-10-10 16:15:00
10:35 AM,50.0,28.4,43,29.86,10.0,ESE,11.5,-,N/A,,Overcast,120,2013-10-10 16:35:00
10:55 AM,48.2,28.4,46,29.86,10.0,SSW,17.3,31.1,N/A,,Overcast,200,2013-10-10 16:55:00
11:15 AM,48.2,30.2,50,29.83,10.0,Calm,Calm,-,N/A,,Overcast,0,2013-10-10 17:15:00
11:35 AM,50.0,28.4,43,29.82,10.0,SE,13.8,17.3,N/A,,Overcast,130,2013-10-10 17:35:00
11:55 AM,51.8,28.4,41,29.81,10.0,SSE,6.9,-,N/A,,Mostly Cloudy,160,2013-10-10 17:55:00
12:15 PM,51.8,28.4,41,29.80,10.0,WSW,13.8,18.4,N/A,,Overcast,250,2013-10-10 18:15:00
12:35 PM,46.4,30.2,53,29.81,10.0,WSW,16.1,24.2,N/A,,Overcast,250,2013-10-10 18:35:00
12:55 PM,41.0,30.2,65,29.85,4.0,WSW,21.9,34.5,N/A,,Overcast,240,2013-10-10 18:55:00
1:15 PM,37.4,30.2,75,29.87,9.0,WSW,12.7,23.0,0.01,,Overcast,240,2013-10-10 19:15:00
1:35 PM,35.6,30.2,81,29.87,10.0,South,8.1,-,0.01,,Overcast,170,2013-10-10 19:35:00
1:55 PM,35.6,30.2,81,29.88,8.0,SE,6.9,-,0.01,,Overcast,130,2013-10-10 19:55:00
2:15 PM,35.6,30.2,81,29.89,5.0,South,3.5,-,0.02,,Overcast,180,2013-10-10 20:15:00
2:35 PM,35.6,32.0,87,29.87,9.0,ENE,6.9,-,0.02,,Overcast,70,2013-10-10 20:35:00
2:55 PM,35.6,30.2,81,29.89,10.0,ESE,4.6,-,0.02,,Overcast,110,2013-10-10 20:55:00
3:15 PM,37.4,32.0,81,29.88,10.0,Calm,Calm,-,N/A,,Overcast,0,2013-10-10 21:15:00
3:35 PM,35.6,30.2,81,29.86,8.0,NNW,5.8,-,0.01,,Overcast,330,2013-10-10 21:35:00
3:55 PM,35.6,30.2,81,29.86,5.0,NNW,5.8,-,0.02,,Overcast,340,2013-10-10 21:55:00
4:15 PM,37.4,32.0,81,29.84,10.0,NE,8.1,-,0.01,,Overcast,40,2013-10-10 22:15:00
4:35 PM,37.4,32.0,81,29.86,10.0,ESE,5.8,-,0.01,,Mostly Cloudy,120,2013-10-10 22:35:00
4:55 PM,37.4,32.0,81,29.85,10.0,Calm,Calm,-,0.01,,Overcast,0,2013-10-10 22:55:00
5:15 PM,37.4,32.0,81,29.85,10.0,SSW,3.5,-,N/A,,Overcast,210,2013-10-10 23:15:00
5:35 PM,37.4,32.0,81,29.85,10.0,SW,4.6,-,N/A,,Overcast,220,2013-10-10 23:35:00
5:55 PM,37.4,32.0,81,29.84,10.0,WSW,3.5,-,N/A,,Overcast,240,2013-10-10 23:55:00
6:15 PM,37.4,32.0,81,29.83,10.0,West,3.5,-,N/A,,Overcast,270,2013-10-11 00:15:00
6:35 PM,37.4,32.0,81,29.83,10.0,WSW,4.6,-,N/A,,Overcast,250,2013-10-11 00:35:00
6:55 PM,37.4,30.2,75,29.84,10.0,WSW,4.6,-,N/A,,Mostly Cloudy,250,2013-10-11 00:55:00
7:15 PM,37.4,32.0,81,29.85,10.0,Calm,Calm,-,N/A,,Mostly Cloudy,0,2013-10-11 01:15:00
7:35 PM,37.4,32.0,81,29.85,10.0,Calm,Calm,-,N/A,,Overcast,0,2013-10-11 01:35:00
7:55 PM,37.4,30.2,75,29.86,10.0,Calm,Calm,-,N/A,,Overcast,0,2013-10-11 01:55:00
8:15 PM,35.6,28.4,75,29.87,5.0,WSW,13.8,21.9,N/A,,Overcast,240,2013-10-11 02:15:00
8:35 PM,35.6,30.2,81,29.88,9.0,SW,9.2,-,N/A,,Mostly Cloudy,230,2013-10-11 02:35:00
8:55 PM,35.6,28.4,75,29.88,10.0,WSW,19.6,25.3,N/A,,Mostly Cloudy,240,2013-10-11 02:55:00
9:15 PM,35.6,28.4,75,29.89,10.0,WSW,17.3,24.2,N/A,,Scattered Clouds,240,2013-10-11 03:15:00
9:35 PM,37.4,26.6,65,29.91,10.0,SW,11.5,21.9,N/A,,Mostly Cloudy,230,2013-10-11 03:35:00
9:55 PM,37.4,26.6,65,29.92,10.0,WSW,12.7,20.7,N/A,,Mostly Cloudy,250,2013-10-11 03:55:00
10:15 PM,37.4,26.6,65,29.92,10.0,WSW,8.1,18.4,N/A,,Overcast,240,2013-10-11 04:15:00
10:35 PM,37.4,26.6,65,29.94,10.0,WSW,15.0,21.9,N/A,,Overcast,250,2013-10-11 04:35:00
10:55 PM,35.6,26.6,70,29.94,9.0,SW,9.2,19.6,N/A,,Mostly Cloudy,230,2013-10-11 04:55:00
11:15 PM,35.6,26.6,70,29.93,10.0,SSW,8.1,-,N/A,,Overcast,210,2013-10-11 05:15:00
11:35 PM,35.6,26.6,70,29.93,10.0,SW,8.1,-,N/A,,Overcast,220,2013-10-11 05:35:00
11:55 PM,37.4,26.6,65,29.93,10.0,SW,10.4,17.3,N/A,,Overcast,230,2013-10-11 05:55:00